Find Kosmos-2434

NORAD ID: 32393 Int'l Des: 2007-065 Owner: KVR/IACG Country: RU Constellation: GLONASS operational
又名: COSMOS 2434 (GLONASS) spacetrack COSMOS 2434 [GLONASS-M] celestrak
MEOCIRCULAR

当前视图

正在加载3D地球...

About Kosmos-2434

Kosmos-2434 (NORAD 32393) is a GLONASS constellation satellite launched Dec 25, 2007 by KVR/IACG of RU. It operates in MEO, CIRCULAR orbit with a mass of 1450.00 kg.

即将过境

Passes for default location (London). Set your location on the main map for personalized predictions.

高度历史

Loading altitude history...

两行轨道根数

1 32393U 07065A 26226.98509406 .00000030 00000-0 00000-0 0 9990
2 32393 64.3206 189.9329 0001167 349.7416 216.0644 2.13101134145024
Epoch: Aug 14, 2026 • Age: 34 hours

当前状态

高度 19146.5 km
远地点 / 近地点 N/A
速度 3.95 km/s
星下点 -42.59°S, 80.86°W
发射日期 Dec 25, 2007
运行时间 18.6 years
类型 other

技术详情

分类 Payload
质量 1450.00 kg
干质量 1200.00 kg
总质量 1450.00 kg
长度 4.00 m
直径 1.50 m
跨度 7.80 m
形状 Cyl + Ant + 2 Pan
制造商 RESH
平台类型 Uragan
阶段状态 In Orbit
所有者/国家 KVR/IACG/RU

Most Searched